Location: Unspecified
(0.0000°N, 0.0000°E)
Time: 16:15:35
(UTC+00:00)

deb Delta 126 - Pass Details

Date: 22 February 2026
Orbit: 1501 x 2092 km, 101.9° (Epoch: 8 March)

Event Time Altitude Azimuth Distance (km) Brightness Sun altitude
Rises 02:56:17 0° 31° (NNE) 4,758 ? -48.3°
Reaches altitude 10° 02:59:13 10° 38° (NE) 3,830 ? -47.6°
Maximum altitude 03:07:47 46° 108° (ESE) 2,209 ? -45.5°
Drops below altitude 10° 03:17:15 10° 177° (S) 4,250 ? -43.2°
Sets 03:20:38 0° 183° (S) 5,321 ? -42.4°
